| time (UTC) | temp F | wind direction | speed knots | gust knots | rain 1hr in | rain 24hr in | rain mn in | humidity % | barometer mb |
| 20260904043945 | 61 | 0 | 0.0 | 0.0 | 0.04 | 0.04 | 0.04 | 99 | |
| 20260904042945 | 61 | 0 | 0.0 | 0.0 | 0.03 | 0.03 | 0.03 | 99 | |
| 20260904041915 | 61 | 0 | 0.0 | 0.0 | 0.02 | 0.02 | 0.02 | 97 | |
| 20260904040915 | 61 | 0 | 0.9 | 0.0 | 0.01 | 0.01 | 0.01 | 97 | |
| 20260904035845 | 61 | 0 | 0.0 | 0.0 | 0.01 | 0.01 | 0.01 | 97 | |
| 20260904034845 | 61 | 0 | 0.0 | 0.0 | 0.00 | 0.00 | 0.00 | 96 | |
| 20260904033815 | 62 | 0 | 0.0 | 0.0 | 0.00 | 0.00 | 0.00 | 95 | |
| 20260904032745 | 62 | 0 | 0.0 | 0.0 | 0.00 | 0.00 | 0.00 | 93 | |
| 20260904031715 | 62 | 0 | 0.0 | 0.0 | 0.00 | 0.00 | 0.00 | 93 | |
| 20260904030715 | 63 | 0 | 0.9 | 0.0 | 0.00 | 0.00 | 0.00 | 91 | |
| 20260904025715 | 63 | 0 | 1.7 | 0.0 | 0.00 | 0.00 | 0.00 | 88 | |
| 20260904024715 | 64 | 0 | 2.6 | 0.0 | 0.00 | 0.00 | 0.00 | 87 | |
| 20260904023645 | 64 | 0 | 2.6 | 0.0 | 0.00 | 0.00 | 0.00 | 86 | |
| 20260904022615 | 64 | 0 | 1.7 | 0.0 | 0.00 | 0.00 | 0.00 | 85 | |
| 20260904021615 | 65 | 0 | 2.6 | 0.0 | 0.00 | 0.00 | 0.00 | 84 | |
| 20260904020545 | 65 | 0 | 0.9 | 0.0 | 0.00 | 0.00 | 0.00 | 82 | |
| 20260904015545 | 66 | 0 | 3.5 | 0.0 | 0.00 | 0.00 | 0.00 | 80 | |
| 20260904014545 | 66 | 0 | 0.9 | 0.0 | 0.00 | 0.00 | 0.00 | 79 | |
| 20260904013515 | 67 | 0 | 1.7 | 0.0 | 0.00 | 0.00 | 0.00 | 78 | |
| 20260904012515 | 67 | 0 | 2.6 | 0.0 | 0.00 | 0.00 | 0.00 | 77 | |
| 20260904011445 | 67 | 0 | 5.2 | 0.0 | 0.00 | 0.00 | 0.00 | 76 | |
| 20260904010445 | 68 | 0 | 3.5 | 0.0 | 0.00 | 0.00 | 0.00 | 75 | |
| 20260904005445 | 68 | 0 | 1.7 | 0.0 | 0.00 | 0.00 | 0.00 | 75 | |
| 20260904004415 | 68 | 0 | 1.7 | 0.0 | 0.00 | 0.00 | 0.00 | 75 | |
| 20260904003345 | 68 | 0 | 3.5 | 0.0 | 0.00 | 0.00 | 0.00 | 74 | |
| 20260904002345 | 68 | 0 | 2.6 | 0.0 | 0.00 | 0.00 | 0.00 | 74 | |
| 20260904001315 | 68 | 0 | 3.5 | 0.0 | 0.00 | 0.00 | 0.00 | 74 | |
| 20260904000248 | 68 | 0 | 1.7 | 0.0 | 0.00 | 0.00 | 0.00 | 74 | |
| 20260903235215 | 68 | 0 | 1.7 | 0.0 | 0.00 | 0.00 | 0.00 | 75 | |
| 20260903234215 | 67 | 0 | 1.7 | 0.0 | 0.00 | 0.00 | 0.00 | 75 | |
| 20260903233145 | 67 | 0 | 5.2 | 0.0 | 0.00 | 0.00 | 0.00 | 75 | |
| 20260903232115 | 68 | 0 | 2.6 | 0.0 | 0.00 | 0.00 | 0.00 | 74 | |
| 20260903231045 | 68 | 0 | 3.5 | 0.0 | 0.00 | 0.00 | 0.00 | 74 | |
| 20260903230045 | 68 | 0 | 4.3 | 0.0 | 0.00 | 0.00 | 0.00 | 74 | |
| 20260903225045 | 68 | 0 | 1.7 | 0.0 | 0.00 | 0.00 | 0.00 | 74 | |
| 20260903224015 | 68 | 0 | 3.5 | 0.0 | 0.00 | 0.00 | 0.00 | 74 | |
| 20260903223015 | 68 | 0 | 1.7 | 0.0 | 0.00 | 0.00 | 0.00 | 74 | |
| 20260903221945 | 68 | 0 | 3.5 | 0.0 | 0.00 | 0.00 | 0.00 | 73 | |
| 20260903220945 | 68 | 0 | 2.6 | 0.0 | 0.00 | 0.00 | 0.00 | 73 | |
| 20260903215945 | 68 | 0 | 4.3 | 0.0 | 0.00 | 0.00 | 0.00 | 72 | |
| 20260903214945 | 68 | 0 | 3.5 | 0.0 | 0.00 | 0.00 | 0.00 | 72 | |
| 20260903213915 | 69 | 0 | 3.5 | 0.0 | 0.00 | 0.00 | 0.00 | 72 | |
| 20260903212915 | 69 | 0 | 3.5 | 0.0 | 0.00 | 0.00 | 0.00 | 71 | |
| 20260903211845 | 69 | 0 | 0.9 | 0.0 | 0.00 | 0.00 | 0.00 | 71 | |
| 20260903210815 | 69 | 0 | 3.5 | 0.0 | 0.00 | 0.00 | 0.00 | 69 | |
| 20260903205745 | 70 | 0 | 1.7 | 0.0 | 0.00 | 0.00 | 0.00 | 69 | |
| 20260903204715 | 69 | 0 | 1.7 | 0.0 | 0.00 | 0.00 | 0.00 | 69 | |
| 20260903203715 | 69 | 0 | 0.9 | 0.0 | 0.00 | 0.00 | 0.00 | 69 | |
| 20260903202645 | 69 | 0 | 1.7 | 0.0 | 0.00 | 0.00 | 0.00 | 69 | |
| 20260903201615 | 68 | 0 | 4.3 | 0.0 | 0.00 | 0.00 | 0.00 | 69 | |
| 20260903200615 | 68 | 0 | 3.5 | 0.0 | 0.00 | 0.00 | 0.00 | 71 | |
| 20260903195615 | 68 | 0 | 2.6 | 0.0 | 0.00 | 0.00 | 0.00 | 70 | |
| 20260903194545 | 68 | 0 | 4.3 | 0.0 | 0.00 | 0.00 | 0.00 | 69 | |
| 20260903193545 | 69 | 0 | 4.3 | 0.0 | 0.00 | 0.00 | 0.00 | 68 | |
| 20260903192545 | 70 | 0 | 5.2 | 0.0 | 0.00 | 0.00 | 0.00 | 67 | |
| 20260903191515 | 70 | 0 | 1.7 | 0.0 | 0.00 | 0.00 | 0.00 | 67 | |
| 20260903190515 | 69 | 0 | 3.5 | 0.0 | 0.00 | 0.00 | 0.00 | 66 | |
| 20260903185515 | 69 | 0 | 3.5 | 0.0 | 0.00 | 0.00 | 0.00 | 67 | |
| 20260903184515 | 69 | 0 | 5.2 | 0.0 | 0.00 | 0.00 | 0.00 | 66 | |
| 20260903183515 | 68 | 0 | 3.5 | 0.0 | 0.00 | 0.00 | 0.00 | 66 | |
| 20260903182445 | 68 | 0 | 3.5 | 0.0 | 0.00 | 0.00 | 0.00 | 66 | |
| 20260903181415 | 68 | 0 | 1.7 | 0.0 | 0.00 | 0.00 | 0.00 | 66 | |
| 20260903180415 | 68 | 0 | 6.1 | 0.0 | 0.00 | 0.00 | 0.00 | 65 | |
| 20260903175345 | 68 | 0 | 3.5 | 0.0 | 0.00 | 0.00 | 0.00 | 66 | |
| 20260903174315 | 67 | 0 | 3.5 | 0.0 | 0.00 | 0.00 | 0.00 | 66 | |
| 20260903173315 | 67 | 0 | 4.3 | 0.0 | 0.00 | 0.00 | 0.00 | 66 | |
| 20260903172315 | 67 | 0 | 1.7 | 0.0 | 0.00 | 0.00 | 0.00 | 67 | |
| 20260903171245 | 66 | 0 | 2.6 | 0.0 | 0.00 | 0.00 | 0.00 | 69 | |
| 20260903170245 | 65 | 0 | 1.7 | 0.0 | 0.00 | 0.00 | 0.00 | 69 | |
| 20260903165215 | 64 | 0 | 2.6 | 0.0 | 0.00 | 0.00 | 0.00 | 70 |